Location: ?????
(54.9266°N, 38.5527°E)
Time: 04:31:43
(UTC+00:00)

ATLAS 3B R/B - Pass Details

Date: 14 April 2024
Orbit: 943 x 1251 km, 63.8° (Epoch: 23 May)

Event Time Altitude Azimuth Distance (km) Brightness Sun altitude
Rises 00:20:59 0° 302° (WNW) 4,104 5.6 -15.9°
Reaches altitude 10° 00:23:47 10° 307° (NW) 3,170 5.1 -15.6°
Maximum altitude 00:31:23 58° 26° (NNE) 1,433 3.7 -14.8°
Drops below altitude 10° 00:39:08 10° 105° (ESE) 3,226 5.7 -14.0°
Sets 00:41:59 0° 109° (ESE) 4,181 6.2 -13.7°
